QPF
0.02 0.03 0.04 0.04 0.03 0.04 0.04 0.04 0.03 0.04 0.03 0.03 0.05 0.05 0.04 0.04 0.04 0.05 0.04 0.04 0.05 0.06 0.06 0.07 0.08 0.08 0.08 0.07 0.07 0.08 0.13 0.15 0.15 0.15 0.12 0.09 0.07 0.07 0.06 0.04 0.04 0.04 0.05
0.02 0.04 0.04 0.04 0.05 0.04 0.04 0.04 0.04 0.04 0.04 0.04 0.04 0.04 0.03 0.03 0.04 0.03 0.03 0.04 0.04 0.05 0.05 0.07 0.07 0.08 0.08 0.07 0.08 0.10 0.11 0.14 0.15 0.15 0.13 0.12 0.11 0.09 0.07 0.06 0.04 0.04 0.04
0.02 0.02 0.04 0.05 0.05 0.05 0.06 0.05 0.05 0.04 0.03 0.03 0.03 0.03 0.03 0.03 0.03 0.03 0.03 0.04 0.04 0.05 0.06 0.06 0.08 0.10 0.09 0.08 0.07 0.08 0.09 0.08 0.12 0.14 0.12 0.12 0.11 0.11 0.11 0.08 0.07 0.06 0.04
0.02 0.03 0.03 0.05 0.05 0.06 0.07 0.07 0.05 0.04 0.04 0.04 0.04 0.03 0.02 0.03 0.03 0.03 0.04 0.04 0.05 0.05 0.06 0.07 0.08 0.09 0.09 0.10 0.08 0.08 0.09 0.10 0.11 0.11 0.11 0.11 0.11 0.10 0.11 0.11 0.09 0.09 0.06
0.01 0.01 0.02 0.04 0.05 0.07 0.08 0.08 0.07 0.06 0.05 0.04 0.03 0.02 0.02 0.02 0.02 0.02 0.03 0.03 0.04 0.05 0.07 0.08 0.07 0.08 0.08 0.07 0.06 0.08 0.09 0.09 0.09 0.09 0.09 0.11 0.12 0.12 0.12 0.11 0.10 0.10 0.09
0.02 0.03 0.03 0.04 0.07 0.08 0.08 0.07 0.07 0.06 0.05 0.04 0.03 0.03 0.03 0.02 0.02 0.02 0.03 0.04 0.05 0.06 0.07 0.07 0.06 0.07 0.07 0.06 0.05 0.05 0.06 0.08 0.08 0.10 0.09 0.09 0.10 0.11 0.12 0.12 0.11 0.12 0.12
0.02 0.02 0.03 0.04 0.07 0.09 0.07 0.06 0.05 0.04 0.04 0.04 0.03 0.04 0.04 0.03 0.03 0.04 0.04 0.04 0.05 0.05 0.06 0.06 0.05 0.05 0.07 0.07 0.06 0.04 0.03 0.04 0.04 0.06 0.07 0.06 0.07 0.08 0.09 0.10 0.11 0.10 0.10
0.02 0.02 0.02 0.02 0.03 0.04 0.05 0.05 0.05 0.05 0.05 0.05 0.04 0.04 0.04 0.03 0.04 0.04 0.04 0.04 0.04 0.05 0.06 0.06 0.06 0.06 0.05 0.06 0.07 0.06 0.04 0.03 0.04 0.03 0.03 0.03 0.04 0.06 0.08 0.10 0.12 0.11 0.11
0.03 0.03 0.02 0.02 0.02 0.02 0.03 0.04 0.05 0.05 0.04 0.05 0.06 0.06 0.06 0.05 0.06 0.04 0.03 0.03 0.04 0.05 0.05 0.07 0.07 0.05 0.04 0.04 0.06 0.07 0.06 0.05 0.03 0.02 0.02 0.02 0.02 0.02 0.05 0.08 0.10 0.11 0.10
0.04 0.05 0.03 0.02 0.02 0.02 0.03 0.04 0.04 0.04 0.05 0.06 0.06 0.07 0.06 0.06 0.07 0.06 0.05 0.04 0.05 0.05 0.05 0.05 0.04 0.03 0.03 0.02 0.03 0.05 0.05 0.04 0.04 0.04 0.03 0.03 0.02 0.03 0.04 0.05 0.06 0.08 0.08
0.05 0.05 0.05 0.05 0.03 0.03 0.03 0.03 0.03 0.05 0.06 0.06 0.05 0.06 0.06 0.05 0.05 0.05 0.05 0.05 0.06 0.06 0.05 0.04 0.03 0.02 0.02 0.02 0.02 0.03 0.03 0.04 0.06 0.06 0.06 0.06 0.07 0.06 0.05 0.04 0.05 0.06 0.07
0.08 0.07 0.07 0.05 0.04 0.03 0.03 0.04 0.05 0.08 0.08 0.07 0.06 0.06 0.07 0.08 0.07 0.08 0.07 0.07 0.07 0.06 0.07 0.06 0.04 0.04 0.03 0.03 0.02 0.02 0.03 0.05 0.06 0.07 0.07 0.06 0.05 0.04 0.04 0.05 0.06 0.06 0.07
0.05 0.06 0.06 0.06 0.06 0.06 0.06 0.06 0.07 0.07 0.09 0.09 0.09 0.09 0.08 0.08 0.07 0.06 0.07 0.08 0.08 0.07 0.08 0.07 0.07 0.06 0.06 0.05 0.05 0.05 0.04 0.05 0.05 0.06 0.06 0.06 0.05 0.04 0.05 0.06 0.06 0.07 0.07
0.03 0.03 0.03 0.04 0.04 0.05 0.05 0.04 0.04 0.04 0.04 0.04 0.04 0.04 0.05 0.06 0.06 0.05 0.04 0.05 0.05 0.05 0.05 0.05 0.04 0.04 0.04 0.05 0.05 0.05 0.04 0.05 0.05 0.05 0.05 0.05 0.06 0.06 0.05 0.06 0.07 0.07 0.08
0.04 0.03 0.03 0.04 0.04 0.04 0.04 0.03 0.02 0.01 0.01 0.01 0.01 0.01 0.02 0.02 0.02 0.02 0.02 0.03 0.03 0.03 0.03 0.03 0.03 0.03 0.03 0.03 0.03 0.03 0.04 0.05 0.05 0.05 0.06 0.06 0.07 0.08 0.08 0.09 0.10 0.10 0.10
0.03 0.02 0.03 0.04 0.04 0.04 0.03 0.02 0.01 0.01 0.01 0.01 0.01 0.01 0.01 0.02 0.02 0.02 0.02 0.02 0.02 0.02 0.02 0.02 0.02 0.02 0.02 0.02 0.02 0.02 0.03 0.05 0.06 0.07 0.08 0.08 0.09 0.09 0.09 0.10 0.11 0.12 0.14
0.04 0.04 0.04 0.04 0.03 0.03 0.03 0.02 0.02 0.01 0.01 0.01 0.01 0.01 0.02 0.03 0.03 0.03 0.02 0.02 0.02 0.01 0.01 0.01 0.02 0.03 0.03 0.03 0.03 0.03 0.03 0.04 0.06 0.06 0.08 0.09 0.10 0.11 0.13 0.15 0.14 0.12 0.11
0.03 0.04 0.05 0.05 0.03 0.02 0.02 0.02 0.02 0.01 0.01 0.01 0.02 0.02 0.02 0.03 0.03 0.03 0.03 0.04 0.05 0.05 0.04 0.04 0.03 0.03 0.03 0.03 0.04 0.05 0.05 0.05 0.04 0.05 0.06 0.06 0.07 0.08 0.10 0.10 0.09 0.08 0.08
0.04 0.04 0.05 0.05 0.04 0.03 0.02 0.02 0.02 0.02 0.01 0.01 0.01 0.01 0.02 0.03 0.03 0.04 0.04 0.07 0.06 0.05 0.05 0.05 0.05 0.04 0.04 0.03 0.04 0.04 0.04 0.04 0.05 0.06 0.06 0.06 0.06 0.07 0.07 0.08 0.08 0.09 0.10
0.04 0.04 0.05 0.04 0.03 0.03 0.03 0.03 0.03 0.02 0.02 0.01 0.01 0.01 0.01 0.02 0.02 0.03 0.03 0.05 0.05 0.04 0.03 0.03 0.03 0.03 0.03 0.03 0.03 0.03 0.04 0.05 0.06 0.06 0.05 0.05 0.06 0.06 0.07 0.07 0.08 0.10 0.12
0.03 0.03 0.04 0.04 0.03 0.02 0.02 0.03 0.03 0.02 0.02 0.02 0.02 0.02 0.02 0.02 0.02 0.02 0.02 0.02 0.02 0.02 0.03 0.04 0.04 0.04 0.04 0.05 0.05 0.05 0.05 0.05 0.07 0.08 0.07 0.06 0.05 0.05 0.06 0.06 0.06 0.08 0.10
0.02 0.03 0.02 0.02 0.03 0.03 0.02 0.02 0.02 0.03 0.03 0.02 0.02 0.02 0.02 0.02 0.03 0.04 0.03 0.02 0.02 0.02 0.02 0.03 0.03 0.02 0.02 0.02 0.02 0.03 0.04 0.05 0.06 0.07 0.07 0.06 0.05 0.05 0.06 0.06 0.07 0.08 0.09
0.03 0.03 0.03 0.02 0.01 0.02 0.02 0.02 0.02 0.02 0.02 0.03 0.03 0.04 0.03 0.03 0.02 0.02 0.01 0.01 0.01 0.01 0.01 0.01 0.01 0.01 0.01 0.02 0.02 0.03 0.04 0.05 0.04 0.04 0.06 0.06 0.05 0.05 0.05 0.06 0.07 0.08 0.09
0.02 0.03 0.03 0.03 0.02 0.01 0.01 0.02 0.02 0.02 0.03 0.04 0.04 0.03 0.02 0.02 0.01 0.01 0.01 0.01 0.01 0.01 0.01 0.01 0.01 0.01 0.02 0.02 0.02 0.02 0.02 0.02 0.02 0.03 0.04 0.04 0.04 0.05 0.05 0.06 0.06 0.06 0.08
0.01 0.01 0.02 0.02 0.02 0.02 0.02 0.02 0.02 0.02 0.02 0.03 0.03 0.03 0.03 0.02 0.01 0.01 0.02 0.02 0.02 0.02 0.02 0.02 0.01 0.01 0.01 0.01 0.01 0.01 0.01 0.02 0.02 0.02 0.02 0.02 0.02 0.03 0.05 0.05 0.07 0.08 0.08
0.02 0.02 0.02 0.02 0.02 0.02 0.02 0.03 0.03 0.04 0.04 0.04 0.03 0.03 0.03 0.02 0.02 0.02 0.02 0.02 0.02 0.02 0.01 0.01 0.01 0.01 0.01 0.01 0.00 0.00 0.01 0.02 0.03 0.03 0.03 0.03 0.03 0.03 0.04 0.04 0.05 0.07 0.08
MSLP
1006.60 1007.40 1008.12 1008.74 1009.23 1009.61 1009.91 1010.18 1010.45 1010.76 1011.13 1011.57 1012.05 1012.57 1013.07 1013.56 1014.00 1014.40 1014.76 1015.09 1015.40 1015.69 1015.99 1016.28 1016.55 1016.79 1016.99 1017.15 1017.26 1017.33 1017.36 1017.36 1017.33 1017.27 1017.19 1017.07 1016.92 1016.73 1016.52 1016.29 1016.06 1015.84 1015.64
1006.71 1007.41 1008.02 1008.54 1008.95 1009.27 1009.54 1009.80 1010.08 1010.42 1010.84 1011.33 1011.87 1012.44 1013.00 1013.54 1014.03 1014.47 1014.87 1015.23 1015.57 1015.89 1016.20 1016.50 1016.79 1017.04 1017.26 1017.43 1017.55 1017.63 1017.66 1017.66 1017.62 1017.55 1017.45 1017.31 1017.13 1016.90 1016.64 1016.36 1016.05 1015.76 1015.48
1006.99 1007.57 1008.06 1008.46 1008.77 1009.02 1009.25 1009.49 1009.79 1010.17 1010.63 1011.17 1011.77 1012.38 1012.99 1013.56 1014.08 1014.54 1014.95 1015.33 1015.68 1016.01 1016.34 1016.66 1016.96 1017.23 1017.47 1017.66 1017.80 1017.90 1017.94 1017.95 1017.92 1017.85 1017.75 1017.61 1017.42 1017.19 1016.91 1016.60 1016.26 1015.90 1015.55
1007.38 1007.83 1008.19 1008.47 1008.68 1008.86 1009.05 1009.29 1009.61 1010.03 1010.54 1011.13 1011.77 1012.41 1013.04 1013.62 1014.15 1014.61 1015.02 1015.39 1015.74 1016.08 1016.41 1016.75 1017.07 1017.37 1017.64 1017.85 1018.02 1018.13 1018.19 1018.21 1018.18 1018.13 1018.04 1017.91 1017.74 1017.53 1017.26 1016.95 1016.60 1016.22 1015.82
1007.80 1008.14 1008.38 1008.55 1008.68 1008.80 1008.97 1009.21 1009.56 1010.01 1010.57 1011.20 1011.87 1012.53 1013.17 1013.74 1014.25 1014.69 1015.07 1015.43 1015.77 1016.11 1016.46 1016.81 1017.16 1017.49 1017.78 1018.01 1018.20 1018.32 1018.38 1018.40 1018.38 1018.33 1018.25 1018.15 1018.01 1017.83 1017.60 1017.32 1017.00 1016.62 1016.20
1008.21 1008.44 1008.59 1008.68 1008.74 1008.83 1008.99 1009.24 1009.62 1010.11 1010.70 1011.36 1012.04 1012.71 1013.33 1013.88 1014.36 1014.77 1015.13 1015.47 1015.80 1016.14 1016.50 1016.87 1017.25 1017.60 1017.91 1018.17 1018.35 1018.47 1018.53 1018.53 1018.50 1018.44 1018.36 1018.27 1018.15 1018.01 1017.84 1017.61 1017.33 1016.98 1016.58
1008.54 1008.72 1008.80 1008.84 1008.87 1008.94 1009.10 1009.37 1009.77 1010.29 1010.91 1011.58 1012.26 1012.92 1013.52 1014.04 1014.49 1014.86 1015.20 1015.52 1015.85 1016.20 1016.57 1016.97 1017.36 1017.73 1018.06 1018.32 1018.49 1018.59 1018.62 1018.59 1018.53 1018.44 1018.34 1018.25 1018.15 1018.05 1017.91 1017.74 1017.52 1017.22 1016.86
1008.79 1008.93 1008.99 1009.02 1009.05 1009.13 1009.30 1009.60 1010.01 1010.55 1011.17 1011.83 1012.50 1013.13 1013.70 1014.20 1014.61 1014.97 1015.29 1015.60 1015.94 1016.30 1016.69 1017.10 1017.52 1017.90 1018.22 1018.47 1018.62 1018.69 1018.67 1018.59 1018.47 1018.33 1018.21 1018.09 1018.00 1017.91 1017.82 1017.70 1017.53 1017.29 1016.97
1008.93 1009.08 1009.16 1009.21 1009.26 1009.37 1009.57 1009.88 1010.31 1010.84 1011.45 1012.10 1012.74 1013.34 1013.88 1014.34 1014.74 1015.09 1015.41 1015.73 1016.07 1016.45 1016.86 1017.29 1017.70 1018.08 1018.39 1018.61 1018.72 1018.73 1018.66 1018.52 1018.34 1018.16 1017.98 1017.84 1017.73 1017.65 1017.57 1017.49 1017.36 1017.17 1016.89
1008.97 1009.16 1009.30 1009.40 1009.50 1009.65 1009.89 1010.21 1010.64 1011.16 1011.75 1012.36 1012.97 1013.54 1014.05 1014.50 1014.88 1015.23 1015.56 1015.90 1016.26 1016.65 1017.06 1017.49 1017.89 1018.25 1018.53 1018.70 1018.77 1018.73 1018.59 1018.40 1018.16 1017.93 1017.71 1017.54 1017.41 1017.32 1017.25 1017.17 1017.06 1016.89 1016.65
1008.92 1009.18 1009.39 1009.56 1009.74 1009.94 1010.21 1010.55 1010.98 1011.48 1012.04 1012.62 1013.19 1013.73 1014.23 1014.66 1015.05 1015.41 1015.76 1016.11 1016.48 1016.87 1017.27 1017.67 1018.05 1018.36 1018.59 1018.71 1018.72 1018.63 1018.45 1018.21 1017.93 1017.66 1017.42 1017.22 1017.08 1016.97 1016.89 1016.81 1016.70 1016.53 1016.29
1008.78 1009.13 1009.42 1009.68 1009.93 1010.19 1010.49 1010.85 1011.28 1011.77 1012.30 1012.85 1013.40 1013.93 1014.41 1014.86 1015.26 1015.63 1015.99 1016.34 1016.71 1017.08 1017.45 1017.80 1018.11 1018.36 1018.52 1018.58 1018.54 1018.40 1018.19 1017.93 1017.64 1017.37 1017.12 1016.92 1016.77 1016.65 1016.55 1016.45 1016.32 1016.14 1015.89
1008.56 1008.99 1009.37 1009.71 1010.03 1010.35 1010.69 1011.08 1011.51 1011.99 1012.51 1013.05 1013.59 1014.12 1014.61 1015.06 1015.48 1015.86 1016.23 1016.57 1016.91 1017.23 1017.54 1017.81 1018.04 1018.21 1018.29 1018.28 1018.19 1018.03 1017.80 1017.55 1017.28 1017.03 1016.81 1016.63 1016.48 1016.36 1016.26 1016.13 1015.98 1015.76 1015.47
1008.29 1008.78 1009.23 1009.63 1010.01 1010.38 1010.76 1011.18 1011.63 1012.12 1012.64 1013.19 1013.74 1014.27 1014.78 1015.25 1015.69 1016.08 1016.43 1016.75 1017.03 1017.29 1017.51 1017.68 1017.81 1017.87 1017.87 1017.80 1017.66 1017.49 1017.27 1017.05 1016.83 1016.63 1016.46 1016.33 1016.21 1016.11 1015.99 1015.85 1015.66 1015.41 1015.08
1007.98 1008.50 1008.98 1009.43 1009.85 1010.26 1010.68 1011.12 1011.60 1012.12 1012.67 1013.24 1013.81 1014.37 1014.90 1015.39 1015.83 1016.22 1016.54 1016.81 1017.03 1017.20 1017.31 1017.37 1017.39 1017.35 1017.26 1017.14 1016.98 1016.80 1016.62 1016.45 1016.30 1016.17 1016.08 1016.00 1015.93 1015.85 1015.74 1015.59 1015.37 1015.09 1014.72
1007.64 1008.16 1008.64 1009.10 1009.54 1009.98 1010.43 1010.91 1011.43 1011.98 1012.56 1013.17 1013.77 1014.36 1014.92 1015.42 1015.86 1016.22 1016.51 1016.72 1016.86 1016.93 1016.93 1016.89 1016.79 1016.67 1016.51 1016.35 1016.18 1016.02 1015.89 1015.78 1015.71 1015.67 1015.65 1015.64 1015.62 1015.57 1015.47 1015.31 1015.08 1014.76 1014.37
1007.32 1007.79 1008.25 1008.70 1009.14 1009.59 1010.07 1010.58 1011.13 1011.72 1012.34 1012.98 1013.62 1014.23 1014.80 1015.30 1015.72 1016.05 1016.29 1016.44 1016.49 1016.47 1016.39 1016.25 1016.07 1015.88 1015.69 1015.51 1015.35 1015.23 1015.15 1015.11 1015.11 1015.15 1015.20 1015.24 1015.27 1015.25 1015.16 1015.00 1014.76 1014.43 1014.01
1007.03 1007.44 1007.85 1008.27 1008.70 1009.15 1009.65 1010.18 1010.77 1011.38 1012.03 1012.69 1013.34 1013.96 1014.52 1015.00 1015.40 1015.69 1015.87 1015.95 1015.94 1015.85 1015.70 1015.50 1015.29 1015.07 1014.87 1014.70 1014.57 1014.50 1014.47 1014.50 1014.57 1014.66 1014.75 1014.84 1014.89 1014.88 1014.80 1014.64 1014.39 1014.05 1013.64
1006.81 1007.15 1007.50 1007.88 1008.29 1008.74 1009.24 1009.79 1010.38 1011.01 1011.67 1012.33 1012.97 1013.56 1014.09 1014.53 1014.88 1015.12 1015.25 1015.29 1015.23 1015.10 1014.92 1014.71 1014.50 1014.29 1014.12 1013.99 1013.92 1013.90 1013.93 1014.01 1014.11 1014.24 1014.36 1014.45 1014.50 1014.49 1014.40 1014.23 1013.98 1013.64 1013.23
1006.66 1006.94 1007.25 1007.60 1007.98 1008.42 1008.91 1009.45 1010.04 1010.66 1011.29 1011.92 1012.52 1013.06 1013.53 1013.92 1014.21 1014.40 1014.49 1014.49 1014.41 1014.28 1014.12 1013.94 1013.77 1013.63 1013.52 1013.46 1013.44 1013.48 1013.56 1013.66 1013.79 1013.92 1014.02 1014.10 1014.12 1014.08 1013.97 1013.79 1013.53 1013.19 1012.80
1006.61 1006.86 1007.14 1007.45 1007.82 1008.24 1008.71 1009.23 1009.78 1010.36 1010.93 1011.50 1012.03 1012.49 1012.89 1013.21 1013.43 1013.57 1013.63 1013.62 1013.56 1013.47 1013.36 1013.25 1013.17 1013.11 1013.09 1013.10 1013.16 1013.25 1013.36 1013.48 1013.59 1013.69 1013.76 1013.79 1013.77 1013.68 1013.53 1013.32 1013.05 1012.72 1012.34
1006.66 1006.90 1007.16 1007.47 1007.82 1008.21 1008.64 1009.11 1009.61 1010.11 1010.61 1011.09 1011.52 1011.90 1012.21 1012.45 1012.62 1012.72 1012.77 1012.78 1012.76 1012.73 1012.71 1012.70 1012.72 1012.76 1012.84 1012.94 1013.05 1013.18 1013.30 1013.41 1013.50 1013.55 1013.56 1013.52 1013.43 1013.29 1013.09 1012.85 1012.57 1012.25 1011.88
1006.79 1007.05 1007.32 1007.62 1007.94 1008.30 1008.68 1009.09 1009.50 1009.92 1010.32 1010.69 1011.03 1011.31 1011.54 1011.72 1011.84 1011.93 1011.99 1012.04 1012.09 1012.15 1012.22 1012.33 1012.45 1012.60 1012.76 1012.93 1013.09 1013.24 1013.35 1013.43 1013.46 1013.45 1013.38 1013.27 1013.11 1012.91 1012.67 1012.40 1012.10 1011.77 1011.43
1007.00 1007.28 1007.56 1007.84 1008.14 1008.45 1008.77 1009.10 1009.43 1009.75 1010.05 1010.33 1010.57 1010.77 1010.94 1011.08 1011.19 1011.29 1011.39 1011.50 1011.62 1011.78 1011.96 1012.16 1012.38 1012.61 1012.84 1013.05 1013.22 1013.36 1013.44 1013.47 1013.44 1013.35 1013.21 1013.02 1012.79 1012.54 1012.26 1011.96 1011.65 1011.33 1010.99
1007.24 1007.54 1007.81 1008.08 1008.34 1008.59 1008.84 1009.09 1009.33 1009.57 1009.78 1009.98 1010.16 1010.32 1010.46 1010.59 1010.73 1010.87 1011.02 1011.21 1011.42 1011.66 1011.93 1012.22 1012.51 1012.79 1013.04 1013.26 1013.42 1013.51 1013.54 1013.50 1013.40 1013.23 1013.02 1012.77 1012.49 1012.20 1011.89 1011.57 1011.25 1010.93 1010.60
1007.47 1007.77 1008.04 1008.27 1008.48 1008.67 1008.85 1009.03 1009.20 1009.37 1009.53 1009.69 1009.84 1010.00 1010.15 1010.32 1010.50 1010.71 1010.94 1011.21 1011.51 1011.83 1012.16 1012.50 1012.82 1013.11 1013.35 1013.53 1013.64 1013.68 1013.64 1013.52 1013.34 1013.11 1012.84 1012.54 1012.22 1011.90 1011.57 1011.25 1010.92 1010.60 1010.26
Thickness
5784 5781 5779 5778 5776 5774 5772 5771 5770 5769 5768 5766 5765 5763 5762 5760 5759 5757 5756 5755 5753 5752 5751 5750 5748 5748 5747 5748 5747 5746 5743 5741 5734 5737 5742 5743 5741 5739 5737 5736 5734 5731 5728
5782 5780 5778 5776 5774 5772 5770 5769 5768 5766 5765 5764 5762 5761 5759 5758 5757 5755 5753 5752 5751 5749 5748 5747 5745 5745 5744 5743 5742 5741 5740 5739 5735 5731 5734 5736 5735 5735 5733 5731 5731 5729 5727
5780 5777 5775 5772 5770 5768 5767 5766 5765 5763 5762 5761 5759 5757 5756 5755 5754 5753 5752 5750 5749 5747 5746 5744 5742 5741 5738 5738 5738 5737 5736 5736 5734 5730 5729 5731 5731 5731 5729 5727 5727 5726 5725
5776 5773 5770 5768 5767 5765 5764 5762 5760 5759 5757 5756 5755 5754 5753 5752 5750 5750 5749 5747 5745 5744 5743 5741 5739 5737 5735 5734 5733 5731 5731 5729 5728 5726 5725 5724 5724 5725 5723 5719 5718 5719 5718
5772 5769 5766 5765 5763 5761 5759 5757 5756 5754 5753 5751 5750 5749 5749 5747 5746 5745 5744 5743 5740 5738 5738 5737 5735 5734 5732 5730 5729 5727 5725 5723 5721 5719 5718 5717 5717 5715 5714 5714 5712 5712 5712
5766 5763 5762 5761 5758 5755 5753 5752 5750 5749 5747 5746 5744 5743 5742 5741 5740 5739 5738 5737 5736 5734 5732 5731 5730 5728 5728 5725 5723 5721 5720 5717 5714 5712 5712 5709 5709 5710 5708 5707 5704 5701 5700
5759 5757 5756 5754 5752 5749 5748 5745 5743 5742 5740 5738 5737 5736 5734 5732 5732 5732 5731 5730 5729 5728 5726 5725 5725 5724 5722 5720 5717 5715 5714 5712 5710 5707 5704 5703 5703 5704 5702 5699 5697 5695 5695
5753 5751 5749 5747 5745 5743 5740 5738 5737 5735 5733 5731 5729 5727 5725 5724 5723 5723 5723 5723 5722 5722 5720 5718 5716 5714 5714 5711 5711 5709 5708 5707 5705 5703 5701 5700 5699 5698 5696 5694 5692 5691 5692
5746 5744 5742 5740 5737 5735 5732 5731 5730 5728 5726 5725 5723 5720 5717 5715 5715 5714 5714 5714 5714 5714 5713 5711 5709 5706 5704 5703 5702 5701 5700 5700 5699 5698 5696 5694 5692 5690 5688 5685 5683 5680 5679
5739 5737 5736 5734 5731 5728 5725 5724 5723 5721 5719 5718 5716 5713 5710 5708 5706 5705 5704 5705 5704 5704 5704 5702 5701 5698 5695 5693 5692 5690 5689 5690 5690 5689 5687 5686 5684 5683 5680 5677 5674 5670 5670
5732 5731 5728 5726 5724 5722 5719 5717 5716 5714 5712 5710 5708 5706 5704 5701 5698 5696 5695 5694 5694 5694 5693 5693 5691 5688 5686 5684 5682 5681 5680 5679 5679 5679 5678 5676 5675 5674 5673 5670 5668 5665 5662
5725 5723 5721 5719 5718 5716 5713 5710 5708 5705 5703 5701 5699 5698 5697 5694 5691 5688 5686 5685 5684 5684 5683 5683 5682 5679 5677 5674 5673 5672 5670 5669 5669 5668 5667 5666 5665 5665 5664 5663 5661 5660 5659
5716 5714 5713 5712 5710 5708 5706 5703 5700 5698 5695 5693 5691 5689 5687 5686 5682 5679 5677 5676 5676 5674 5674 5672 5671 5668 5666 5665 5664 5663 5661 5660 5659 5657 5656 5656 5657 5657 5657 5655 5654 5653 5651
5709 5707 5706 5704 5702 5701 5699 5696 5693 5690 5687 5685 5683 5681 5679 5677 5673 5670 5668 5667 5666 5664 5663 5662 5661 5659 5657 5656 5654 5653 5651 5650 5649 5647 5647 5648 5648 5647 5647 5646 5643 5642 5640
5702 5701 5700 5698 5695 5692 5690 5688 5686 5683 5681 5677 5676 5674 5670 5666 5664 5660 5658 5657 5655 5653 5651 5651 5651 5650 5647 5646 5645 5643 5642 5641 5639 5638 5636 5636 5635 5635 5635 5635 5633 5632 5629
5694 5694 5694 5692 5690 5688 5684 5680 5677 5675 5673 5671 5668 5666 5664 5659 5656 5653 5650 5647 5645 5642 5641 5641 5640 5638 5637 5635 5634 5632 5630 5629 5628 5627 5626 5625 5623 5622 5622 5621 5620 5619 5617
5688 5688 5688 5686 5684 5682 5679 5675 5670 5666 5664 5662 5660 5658 5655 5651 5648 5645 5642 5639 5636 5633 5631 5630 5629 5627 5625 5623 5622 5620 5618 5617 5615 5615 5614 5613 5612 5610 5609 5608 5607 5606 5605
5682 5682 5681 5680 5678 5677 5674 5670 5667 5662 5658 5654 5650 5647 5645 5642 5639 5636 5633 5630 5629 5625 5623 5620 5617 5616 5614 5612 5610 5608 5607 5605 5603 5602 5601 5600 5598 5597 5597 5596 5595 5594 5594
5675 5675 5674 5673 5671 5670 5667 5664 5661 5657 5653 5649 5645 5639 5635 5633 5630 5626 5623 5621 5620 5617 5614 5611 5609 5607 5604 5602 5600 5597 5595 5593 5591 5589 5587 5586 5585 5584 5584 5583 5583 5582 5582
5668 5667 5666 5665 5664 5661 5659 5656 5653 5649 5645 5642 5638 5634 5628 5625 5622 5619 5614 5612 5610 5607 5604 5602 5598 5596 5594 5592 5589 5587 5584 5582 5580 5578 5576 5574 5573 5572 5572 5572 5571 5571 5571
5662 5661 5658 5657 5656 5653 5651 5648 5645 5641 5637 5634 5630 5626 5620 5618 5615 5612 5609 5606 5602 5599 5595 5592 5589 5586 5583 5580 5578 5576 5574 5571 5569 5565 5562 5561 5560 5560 5560 5560 5559 5559 5559
5655 5654 5652 5650 5648 5645 5642 5639 5636 5632 5629 5625 5621 5618 5612 5610 5607 5604 5600 5597 5594 5590 5585 5582 5578 5575 5572 5569 5566 5563 5561 5558 5555 5552 5549 5549 5548 5548 5548 5548 5547 5546 5546
5647 5646 5644 5643 5640 5636 5634 5631 5626 5623 5620 5617 5613 5610 5605 5601 5597 5594 5590 5587 5584 5579 5576 5573 5569 5566 5562 5559 5556 5551 5546 5542 5540 5538 5537 5537 5537 5536 5535 5535 5535 5534 5533
5640 5639 5637 5634 5632 5629 5625 5621 5618 5615 5611 5607 5604 5601 5597 5592 5588 5585 5581 5577 5574 5571 5567 5564 5560 5556 5552 5548 5543 5538 5532 5529 5527 5525 5524 5523 5524 5524 5524 5523 5523 5523 5522
5633 5631 5629 5626 5623 5620 5616 5613 5610 5606 5603 5599 5596 5592 5589 5584 5580 5577 5573 5569 5566 5562 5558 5554 5549 5545 5541 5537 5531 5526 5521 5518 5516 5514 5513 5513 5513 5513 5513 5513 5512 5511 5511
5625 5623 5621 5619 5616 5612 5608 5605 5602 5598 5595 5592 5588 5585 5581 5577 5573 5569 5565 5561 5557 5553 5548 5544 5540 5536 5531 5527 5521 5516 5512 5509 5507 5505 5503 5503 5503 5503 5502 5501 5501 5500 5500